TimeCST,TemperatureF,Dew PointF,Humidity,Sea Level PressureIn,VisibilityMPH,Wind Direction,Wind SpeedMPH,Gust SpeedMPH,PrecipitationIn,Events,Conditions,WindDirDegrees,DateUTC
12:15 AM,23.0,21.2,93,29.97,4.0,Calm,Calm,-,N/A,Snow,Light Snow,0,2012-12-08 06:15:00
12:35 AM,23.0,23.0,100,29.96,3.0,Calm,Calm,-,N/A,Snow,Light Snow,0,2012-12-08 06:35:00
12:55 AM,23.0,23.0,100,29.96,5.0,Calm,Calm,-,N/A,,Mostly Cloudy,0,2012-12-08 06:55:00
1:15 AM,23.0,23.0,100,29.96,7.0,Calm,Calm,-,N/A,Snow,Light Snow,0,2012-12-08 07:15:00
1:35 AM,23.0,23.0,100,29.96,7.0,Calm,Calm,-,N/A,Snow,Light Snow,0,2012-12-08 07:35:00
1:55 AM,23.0,23.0,100,29.96,10.0,Calm,Calm,-,N/A,,Overcast,0,2012-12-08 07:55:00
2:15 AM,23.0,23.0,100,29.96,10.0,Calm,Calm,-,N/A,,Scattered Clouds,0,2012-12-08 08:15:00
2:35 AM,21.2,21.2,100,29.97,10.0,Calm,Calm,-,N/A,Snow,Light Snow,0,2012-12-08 08:35:00
2:55 AM,21.2,21.2,100,29.96,10.0,Calm,Calm,-,N/A,,Mostly Cloudy,0,2012-12-08 08:55:00
3:15 AM,21.2,21.2,100,29.96,10.0,Calm,Calm,-,N/A,,Overcast,0,2012-12-08 09:15:00
3:35 AM,21.2,21.2,100,29.96,5.0,Calm,Calm,-,N/A,Snow,Light Snow,0,2012-12-08 09:35:00
3:55 AM,21.2,21.2,100,29.96,4.0,Calm,Calm,-,N/A,Snow,Light Snow,0,2012-12-08 09:55:00
4:15 AM,21.2,21.2,100,29.96,5.0,Calm,Calm,-,N/A,Snow,Light Snow,0,2012-12-08 10:15:00
4:35 AM,21.2,21.2,100,29.96,7.0,Calm,Calm,-,N/A,Snow,Light Snow,0,2012-12-08 10:35:00
4:55 AM,21.2,21.2,100,29.96,10.0,Calm,Calm,-,N/A,,Overcast,0,2012-12-08 10:55:00
5:15 AM,19.4,19.4,100,29.97,10.0,Calm,Calm,-,N/A,,Overcast,0,2012-12-08 11:15:00
5:35 AM,19.4,19.4,100,29.97,10.0,Calm,Calm,-,N/A,,Overcast,0,2012-12-08 11:35:00
5:55 AM,19.4,19.4,100,29.97,10.0,Calm,Calm,-,N/A,,Scattered Clouds,0,2012-12-08 11:55:00
6:15 AM,17.6,17.6,100,29.97,10.0,Calm,Calm,-,N/A,,Clear,0,2012-12-08 12:15:00
6:35 AM,17.6,15.8,93,29.97,7.0,Calm,Calm,-,N/A,,Clear,0,2012-12-08 12:35:00
6:55 AM,15.8,15.8,100,29.98,10.0,Calm,Calm,-,N/A,,Clear,0,2012-12-08 12:55:00
7:15 AM,15.8,15.8,100,29.98,10.0,Calm,Calm,-,N/A,,Clear,0,2012-12-08 13:15:00
7:35 AM,14.0,12.2,93,29.99,10.0,Calm,Calm,-,N/A,,Clear,0,2012-12-08 13:35:00
7:55 AM,14.0,12.2,93,29.99,10.0,Calm,Calm,-,N/A,,Clear,0,2012-12-08 13:55:00
8:15 AM,14.0,14.0,100,30.00,5.0,Calm,Calm,-,N/A,,Clear,0,2012-12-08 14:15:00
8:35 AM,17.6,17.6,100,30.00,4.0,Calm,Calm,-,N/A,,Clear,0,2012-12-08 14:35:00
8:55 AM,19.4,19.4,100,30.01,10.0,Calm,Calm,-,N/A,,Scattered Clouds,0,2012-12-08 14:55:00
9:15 AM,23.0,23.0,100,30.01,10.0,Calm,Calm,-,N/A,,Overcast,0,2012-12-08 15:15:00
9:35 AM,26.6,21.2,80,30.01,10.0,Calm,Calm,-,N/A,,Mostly Cloudy,0,2012-12-08 15:35:00
9:55 AM,26.6,19.4,74,30.02,10.0,NNW,3.5,-,N/A,,Overcast,340,2012-12-08 15:55:00
10:15 AM,26.6,19.4,74,30.02,10.0,WNW,3.5,-,N/A,,Overcast,300,2012-12-08 16:15:00
10:35 AM,26.6,19.4,74,30.02,10.0,NW,4.6,-,N/A,,Overcast,310,2012-12-08 16:35:00
10:55 AM,26.6,19.4,74,30.01,10.0,WNW,3.5,-,N/A,,Overcast,300,2012-12-08 16:55:00
11:15 AM,26.6,19.4,74,30.01,10.0,North,3.5,-,N/A,,Overcast,360,2012-12-08 17:15:00
11:35 AM,26.6,19.4,74,30.01,10.0,North,4.6,-,N/A,,Overcast,350,2012-12-08 17:35:00
11:55 AM,26.6,19.4,74,30.01,10.0,Calm,Calm,-,N/A,,Scattered Clouds,0,2012-12-08 17:55:00
12:15 PM,28.4,19.4,69,30.01,10.0,WNW,5.8,-,N/A,,Scattered Clouds,300,2012-12-08 18:15:00
12:35 PM,28.4,19.4,69,30.01,10.0,North,4.6,-,N/A,,Overcast,350,2012-12-08 18:35:00
12:55 PM,28.4,19.4,69,30.01,10.0,NW,3.5,-,N/A,,Overcast,310,2012-12-08 18:55:00
1:15 PM,28.4,19.4,69,30.02,10.0,North,5.8,-,N/A,,Overcast,360,2012-12-08 19:15:00
1:35 PM,28.4,19.4,69,30.02,10.0,NNW,5.8,-,N/A,,Overcast,340,2012-12-08 19:35:00
1:55 PM,28.4,19.4,69,30.01,10.0,NNE,3.5,-,N/A,,Mostly Cloudy,20,2012-12-08 19:55:00
2:15 PM,28.4,19.4,69,30.01,10.0,NNE,3.5,-,N/A,,Scattered Clouds,20,2012-12-08 20:15:00
2:55 PM,28.4,17.6,64,30.00,10.0,East,3.5,-,N/A,,Scattered Clouds,80,2012-12-08 20:55:00
3:15 PM,28.4,17.6,64,30.01,10.0,East,3.5,-,N/A,,Scattered Clouds,80,2012-12-08 21:15:00
3:55 PM,26.6,17.6,69,30.03,10.0,Calm,Calm,-,N/A,,Clear,0,2012-12-08 21:55:00
4:15 PM,26.6,17.6,69,30.05,10.0,Calm,Calm,-,N/A,,Clear,0,2012-12-08 22:15:00
4:35 PM,23.0,17.6,80,30.06,10.0,Calm,Calm,-,N/A,,Clear,0,2012-12-08 22:35:00
4:55 PM,23.0,17.6,80,30.06,10.0,Calm,Calm,-,N/A,,Clear,0,2012-12-08 22:55:00
5:15 PM,23.0,17.6,80,30.06,10.0,Calm,Calm,-,N/A,,Clear,0,2012-12-08 23:15:00
5:35 PM,21.2,17.6,86,30.06,10.0,Calm,Calm,-,N/A,,Clear,0,2012-12-08 23:35:00
5:55 PM,21.2,17.6,86,30.06,10.0,Calm,Calm,-,N/A,,Clear,0,2012-12-08 23:55:00
6:15 PM,19.4,15.8,86,30.06,4.0,Calm,Calm,-,N/A,,Clear,0,2012-12-09 00:15:00
6:35 PM,17.6,17.6,100,30.06,10.0,Calm,Calm,-,N/A,,Clear,0,2012-12-09 00:35:00
6:55 PM,17.6,17.6,100,30.07,7.0,Calm,Calm,-,N/A,,Clear,0,2012-12-09 00:55:00
7:15 PM,14.0,14.0,100,30.08,7.0,Calm,Calm,-,N/A,,Clear,0,2012-12-09 01:15:00
7:35 PM,15.8,14.0,93,30.08,7.0,Calm,Calm,-,N/A,,Clear,0,2012-12-09 01:35:00
7:55 PM,15.8,15.8,100,30.07,10.0,Calm,Calm,-,N/A,,Clear,0,2012-12-09 01:55:00
8:15 PM,14.0,14.0,100,30.08,10.0,Calm,Calm,-,N/A,,Clear,0,2012-12-09 02:15:00
8:35 PM,14.0,14.0,100,30.07,10.0,Calm,Calm,-,N/A,,Clear,0,2012-12-09 02:35:00
9:15 PM,14.0,14.0,100,30.08,10.0,Calm,Calm,-,N/A,,Clear,0,2012-12-09 03:15:00
9:55 PM,14.0,12.2,93,30.08,10.0,Calm,Calm,-,N/A,,Clear,0,2012-12-09 03:55:00
10:35 PM,14.0,12.2,93,30.09,10.0,Calm,Calm,-,N/A,,Clear,0,2012-12-09 04:35:00
10:55 PM,15.8,15.8,100,30.10,10.0,Calm,Calm,-,N/A,,Clear,0,2012-12-09 04:55:00
11:15 PM,15.8,14.0,93,30.10,10.0,Calm,Calm,-,N/A,,Clear,0,2012-12-09 05:15:00
11:55 PM,15.8,15.8,100,30.10,10.0,Calm,Calm,-,N/A,,Clear,0,2012-12-09 05:55:00